Lapse_Rate
6.5 6.4 6.5 6.7 6.1 6.0 6.4 6.1 6.1 5.7 6.0 5.8 5.8 5.5 5.2 5.2 5.2 5.1 5.1 4.9 5.1 5.1 5.1 5.0 4.9 4.9 4.8
7.0 6.5 6.3 6.4 6.4 6.2 6.0 6.0 5.8 5.8 5.4 5.7 5.6 5.3 5.2 5.2 5.1 4.9 5.0 5.1 4.9 4.8 5.4 5.6 5.6 5.5 5.4
6.4 5.9 5.8 6.1 6.3 6.0 5.6 5.5 5.6 5.7 5.5 5.6 5.4 5.2 5.2 5.3 5.2 5.3 5.4 5.5 5.9 5.9 5.9 6.0 6.1 6.1 6.0
6.1 5.7 5.7 5.3 5.5 5.7 5.7 5.5 5.5 5.8 5.7 5.5 5.3 5.0 5.6 5.7 6.0 5.9 5.8 5.9 5.9 5.9 5.9 5.8 5.7 5.8 5.6
5.8 5.5 5.4 5.2 5.3 5.5 5.5 5.6 5.7 6.0 5.9 5.7 5.5 5.7 5.9 5.9 5.9 6.0 5.9 5.9 5.8 5.8 5.9 5.8 5.7 5.5 5.3
6.1 6.0 5.9 5.8 5.7 5.6 5.5 5.8 6.0 5.9 5.8 5.8 5.9 5.9 5.9 5.9 5.8 5.8 5.8 5.7 5.6 5.6 5.6 5.5 5.4 5.2 5.0
5.9 5.8 5.9 5.8 5.8 5.8 5.8 5.8 5.8 5.9 6.2 5.7 6.1 6.0 6.1 6.0 6.1 6.0 5.9 5.8 5.8 5.7 5.7 5.7 5.5 5.4 5.4
6.2 6.2 6.1 5.8 5.7 5.6 5.7 5.9 5.9 5.9 6.2 6.0 6.0 6.2 6.3 6.2 6.1 6.0 6.0 6.1 6.1 6.2 6.2 6.2 6.3 6.4 6.4
6.5 6.4 6.4 6.3 6.2 5.9 6.0 6.0 5.9 5.9 6.1 6.2 6.0 6.0 6.0 6.1 6.3 6.4 6.4 6.4 6.6 6.7 6.9 7.0 6.9 6.8 6.6
6.6 6.5 6.5 6.5 6.4 6.2 6.0 5.9 5.8 5.6 5.6 5.9 6.1 6.1 6.0 5.9 6.2 6.4 6.6 6.7 6.9 7.0 7.0 7.0 6.8 6.9 6.7
6.5 6.4 6.2 6.1 6.0 5.9 5.7 5.6 5.5 5.4 5.5 5.8 5.9 5.7 5.8 6.4 6.8 6.7 6.8 6.8 6.9 6.9 6.8 6.7 6.6 6.6 6.5
6.3 6.1 5.9 5.8 5.7 5.6 5.5 5.2 5.2 5.4 5.5 5.6 5.7 5.7 6.1 6.9 7.2 7.0 6.9 6.9 7.0 6.7 6.5 6.5 6.4 6.3 6.3
6.0 5.9 5.7 5.5 5.3 5.1 5.0 4.7 5.0 5.2 5.3 5.2 5.3 5.4 6.0 6.7 7.4 7.3 7.2 7.2 7.0 6.9 6.8 6.6 6.5 6.4 6.3
5.7 5.6 5.4 5.2 5.0 4.9 4.6 4.6 5.0 5.0 5.1 5.2 5.3 5.5 6.1 6.7 7.3 7.6 7.2 7.4 7.3 7.2 7.1 7.0 6.8 6.6 6.5
5.5 5.3 5.1 5.0 4.9 4.7 4.6 4.6 5.0 5.1 5.0 4.7 4.7 4.9 5.6 6.5 7.3 7.3 7.3 7.4 7.2 7.1 7.0 7.0 6.9 6.7 6.6
5.2 5.0 5.0 4.8 4.7 4.6 4.4 4.6 5.0 5.0 5.0 4.8 4.8 4.8 5.2 6.3 6.6 7.0 7.2 7.2 7.0 7.0 6.9 6.8 6.9 6.9 6.6
5.1 5.0 4.9 4.7 4.6 4.5 4.3 4.5 4.8 4.9 5.0 4.9 4.7 4.7 5.3 6.2 7.1 7.0 7.0 6.9 6.8 6.9 6.6 6.4 6.4 7.0 6.8
Wind_Speed
2 2 1 1 4 5 5 3 3 9 11 13 13 12 14 17 14 14 16 18 18 17 17 19 19 19 18
2 1 2 2 3 3 2 2 1 5 10 14 14 16 14 15 16 17 15 14 17 18 18 17 17 18 18
1 2 2 2 2 2 1 3 3 8 11 11 12 15 14 13 11 12 15 17 17 16 14 15 17 17 18
2 1 1 1 1 1 2 1 2 6 8 10 8 8 8 10 13 15 16 16 17 17 17 17 18 17 17
2 2 2 1 1 1 0 1 2 1 1 2 3 5 10 13 13 14 16 15 16 16 16 17 17 17 17
1 1 1 0 1 1 1 1 2 3 2 3 4 4 10 13 13 14 14 16 16 16 16 16 17 17 17
1 0 1 1 2 1 1 1 2 3 1 4 1 3 8 10 10 12 15 16 15 15 15 14 15 15 16
2 1 2 4 3 3 3 2 3 3 3 2 1 3 5 10 14 15 16 16 15 13 10 13 15 16 18
6 6 5 6 1 3 2 2 2 2 0 1 2 3 2 3 5 6 2 3 6 11 13 13 16 18 17
5 7 6 5 4 2 3 2 2 3 2 1 1 1 4 2 2 7 11 10 14 13 15 18 19 14 9
4 3 3 3 2 3 4 3 3 3 3 1 1 0 2 3 3 3 6 11 12 16 19 20 18 16 4
2 2 2 2 2 6 5 5 8 7 13 3 2 3 2 5 6 2 4 10 11 9 12 16 19 19 20
2 1 1 2 6 5 5 8 10 12 12 14 3 3 5 7 9 8 9 2 7 8 8 6 4 8 7
2 2 2 1 1 2 2 4 2 4 9 12 13 6 6 7 8 10 9 6 2 4 5 7 11 14 13
1 4 5 5 5 2 3 2 3 5 6 3 12 14 8 9 9 10 11 10 9 9 7 8 8 9 12
2 3 5 6 5 4 2 3 7 7 7 5 2 3 3 9 21 11 10 9 9 7 7 9 11 9 14
2 3 3 2 7 5 5 5 6 7 7 5 2 3 7 8 3 17 9 8 6 7 8 8 11 12 9
Wind_Direction
48 49 15 45 79 113 138 143 193 242 249 265 262 259 264 270 280 272 272 273 270 274 279 279 278 277 276
13 22 69 48 63 71 114 133 141 285 269 263 265 264 269 267 262 263 268 275 277 275 275 277 279 280 280
79 47 48 64 61 51 343 298 256 249 260 265 260 256 258 261 275 279 280 278 277 278 278 279 279 280 279
75 76 65 70 91 174 209 217 252 260 260 255 257 282 301 291 282 280 278 273 274 271 271 273 273 273 275
49 41 49 57 61 27 333 308 281 304 295 280 309 314 296 287 276 271 270 267 266 267 264 261 265 268 271
24 69 65 68 35 33 49 36 306 33 10 305 297 277 272 273 265 265 264 264 262 261 267 268 269 272 272
123 154 103 196 123 83 104 135 266 307 21 280 286 280 275 276 278 271 261 258 256 260 268 270 269 271 274
102 177 203 194 185 170 184 212 261 269 182 261 306 275 293 292 291 276 263 258 263 260 270 281 280 281 279
21 1 346 340 259 130 279 67 325 294 221 286 329 300 284 305 326 338 7 324 294 287 284 285 286 282 285
349 347 349 334 346 169 153 156 190 331 255 163 294 345 329 268 271 307 316 309 311 301 299 295 291 289 279
332 332 345 0 31 55 174 147 155 240 251 161 223 217 211 294 295 289 291 303 305 296 290 290 289 279 265
339 335 344 334 326 344 322 263 240 229 275 252 249 171 208 278 281 278 280 275 262 269 267 276 281 275 272
321 287 241 269 310 320 314 305 287 281 271 254 204 241 248 258 271 285 298 265 271 271 270 259 251 249 276
264 294 281 330 293 245 275 299 291 287 276 263 250 221 260 259 265 271 272 263 261 248 251 266 261 247 249
264 302 308 305 298 282 272 276 262 291 292 253 256 255 248 251 263 258 262 265 262 274 274 271 267 255 249
256 275 284 294 293 283 245 252 281 283 280 280 256 311 280 257 235 253 259 262 268 262 254 268 279 269 255
255 267 262 256 294 285 276 264 272 271 270 269 231 224 278 278 261 250 249 257 259 260 254 245 260 273 273